Location: Bremen
(53.0793°N, 8.8017°E)
Time: 21:11:36
(UTC+02:00)

Envisat - Pass Details

Date: 01 March 2024
Orbit: 762 x 764 km, 98.3° (Epoch: 13 April)

Event Time Altitude Azimuth Distance (km) Brightness Sun altitude
Rises 02:59:51 0° 22° (NNE) 3,244 7.1 -36.0°
Reaches altitude 10° 03:02:31 10° 34° (NE) 2,312 6.2 -35.7°
Enters shadow 03:06:21 27° 83° (E) 1,449 4.8 -35.3°
